Istrana, Italy

11:10 AM CET on January 19, 2018 (GMT +0100)
Istrana Mil

Weather History for LIPS - March, 2013

Change the Weather History Date:

Sunday, March 24, 2013

  Actual Average Record
Temperature  
Mean Temperature 42 °F -  
Max Temperature 45 °F 62 °F 71 °F (2012)
Min Temperature 40 °F 43 °F 30 °F (2003)
Degree Days  
Heating Degree Days 22    
Moisture  
Dew Point 38 °F    
Average Humidity 82    
Maximum Humidity 93    
Minimum Humidity 68    
Precipitation  
Precipitation 0.16 in 0.10 in - ()
Sea Level Pressure  
Sea Level Pressure 29.82 in    
Wind  
Wind Speed 11 mph ()    
Max Wind Speed 16 mph    
Max Gust Speed -    
Visibility 4.2 miles    
Events Rain    
Averages and records for this station are not official NWS values.
T = Trace of Precipitation, MM = Missing Value Source: Averaged Metar Reports

Daily Weather History Graph

Daily Weather History Graph

Search for Another Location

Airport or City:

Trip Planner

Search our weather history database for the weather conditions in past years. The results will help you decide how hot, cold, wet, or windy it might be!

Date:

Astronomy

Mar. 24, 2013 Rise Set
Actual Time 6:07 AM CET 6:29 PM CET
Civil Twilight 5:37 AM CET 6:59 PM CET
Nautical Twilight 5:02 AM CET 7:34 PM CET
Astronomical Twilight 4:26 AM CET 8:10 PM CET
Moon 3:33 PM CET (3/24) 4:16 AM CET (3/24)
Length of Visible Light 13h 21m
Length of Day
12h 22m
Waxing Gibbous, 90% of the Moon is Illuminated
Mar 24
Waxing Gibbous
Mar 27
Full
Apr 3
Last Quarter
Apr 10
New
Apr 18
First Quarter

Hourly Weather History & Observations

Time (CET) Temp. Dew Point Humidity Pressure Visibility Wind Dir Wind Speed Gust Speed Precip Events Conditions
12:55 AM 42.8 °F 39.2 °F 87% 29.89 in - North - - N/A Rain Light Rain
1:00 AM 43 °F 40 °F 85% 29.91 in 4 mi NE 12.7 mph - - Rain Light Rain
1:55 AM 42.8 °F 41.0 °F 93% 29.89 in - North - - N/A Rain Light Rain
2:55 AM 42.8 °F 41.0 °F 93% 29.86 in - North - - N/A Rain Light Rain
3:55 AM 42.8 °F 39.2 °F 87% 29.86 in - North - - N/A   Mostly Cloudy
4:00 AM 42 °F 40 °F 88% 29.89 in 4 mi NE 13.8 mph - - Rain Light Rain
4:55 AM 42.8 °F 39.2 °F 87% 29.86 in - North - - N/A   Mostly Cloudy
5:55 AM 42.8 °F 39.2 °F 87% 29.86 in - North - - N/A   Mostly Cloudy
6:55 AM 42.8 °F 37.4 °F 81% 29.83 in - North - - N/A   Mostly Cloudy
7:00 AM 43 °F 37 °F 74% 29.86 in 5 mi NE 12.7 mph - -   Mist
7:55 AM 42.8 °F 35.6 °F 76% 29.83 in - North - - N/A   Mostly Cloudy
8:55 AM 44.6 °F 39.2 °F 81% 29.83 in - North - - N/A Rain Light Rain
9:55 AM 44.6 °F 37.4 °F 76% 29.86 in - North - - N/A Rain Light Rain
10:00 AM 44 °F 37 °F 68% 29.87 in 4 mi NE 13.8 mph - - Rain Light Rain
10:55 AM 44.6 °F 37.4 °F 76% 29.83 in - North - - N/A Rain Light Rain
11:55 AM 44.6 °F 37.4 °F 76% 29.83 in - North - - N/A Rain Light Rain
12:55 PM 42.8 °F 37.4 °F 81% 29.83 in - North - - N/A   Overcast
1:00 PM 43 °F 37 °F 72% 29.84 in 4 mi NE 16.1 mph - - Rain Light Rain
1:55 PM 42.8 °F 37.4 °F 81% 29.80 in - North - - N/A Rain Light Rain
2:55 PM 42.8 °F 37.4 °F 81% 29.80 in - North - - N/A Rain Light Rain
3:55 PM 42.8 °F 37.4 °F 81% 29.80 in - North - - N/A Rain Light Rain
4:00 PM 42 °F 38 °F 79% 29.81 in 5 mi NE 15.0 mph - - Rain Light Rain
4:55 PM 41.0 °F 35.6 °F 81% 29.77 in - North - - N/A Rain Light Rain
5:55 PM 41.0 °F 33.8 °F 76% 29.77 in - North - - N/A   Overcast
6:55 PM 41.0 °F 35.6 °F 81% 29.77 in - North - - N/A Rain Light Rain
7:00 PM 41 °F 35 °F 73% 29.78 in 4 mi NE 12.7 mph - - Rain Light Rain
7:55 PM 41.0 °F 37.4 °F 87% 29.77 in - North - - N/A Rain Light Rain
8:55 PM 41.0 °F 35.6 °F 81% 29.77 in - North - - N/A Rain Light Rain
9:55 PM 41.0 °F 37.4 °F 87% 29.77 in - North - - N/A Rain Rain
10:00 PM 40 °F 37 °F 85% 29.78 in 4 mi NE 15.0 mph - - Rain Rain
10:55 PM 41.0 °F 37.4 °F 87% 29.74 in - North - - N/A Rain Rain